Holbrook, NY

6:09 AM EDT on August 25, 2016 (GMT -0400)
Long Island Mac Arthur

Weather History for KISP - April, 2013

Change the Weather History Date:

Friday, April 12, 2013

  Actual Average Record
Temperature  
Mean Temperature 44 °F 48 °F  
Max Temperature 47 °F 56 °F 73 °F (1996)
Min Temperature 40 °F 40 °F 28 °F (1989)
Degree Days  
Heating Degree Days 21 17  
Month to date heating degree days 206 226  
Since 1 July heating degree days 4639 4918  
Cooling Degree Days 0 0  
Month to date cooling degree days 1 0  
Year to date cooling degree days 1 0  
Moisture  
Dew Point 37 °F    
Average Humidity 77    
Maximum Humidity 89    
Minimum Humidity 65    
Precipitation  
Precipitation 0.79 in 0.16 in 1.82 in (2007)
Month to date precipitation 1.20 1.83  
Year to date precipitation 11.97 13.17  
Snow  
Snow 0.00 in 0.00 in - ()
Month to date snowfall 0.0 0.4  
Since 1 July snowfall 46.9 24.6  
Snow Depth 0.00 in    
Sea Level Pressure  
Sea Level Pressure 29.84 in    
Wind  
Wind Speed 17 mph (ENE)    
Max Wind Speed 32 mph    
Max Gust Speed 43 mph    
Visibility 7 miles    
Events Rain    
T = Trace of Precipitation, MM = Missing Value Source: NWS Daily Summary

Daily Weather History Graph

Daily Weather History Graph

Search for Another Location

Airport or City:

Trip Planner

Search our weather history database for the weather conditions in past years. The results will help you decide how hot, cold, wet, or windy it might be!

Date:

Astronomy

Apr. 12, 2013 Rise Set
Actual Time 6:17 AM EDT 7:29 PM EDT
Civil Twilight 5:49 AM EDT 7:57 PM EDT
Nautical Twilight 5:15 AM EDT 8:31 PM EDT
Astronomical Twilight 4:40 AM EDT 9:06 PM EDT
Moon 7:25 AM EDT (4/12) 9:58 PM EDT (4/12)
Length of Visible Light 14h 07m
Length of Day
13h 11m
Waxing Crescent, 5% of the Moon is Illuminated
Apr 12
Waxing Crescent
Apr 18
First Quarter
Apr 25
Full
May 2
Last Quarter
May 9
New

Hourly Weather History & Observations

Time (EDT) Temp. Windchill Dew Point Humidity Pressure Visibility Wind Dir Wind Speed Gust Speed Precip Events Conditions
12:56 AM 46.9 °F - 35.1 °F 63% 30.03 in 10.0 mi East 12.7 mph - N/A   Overcast
1:26 AM 46.4 °F 40.4 °F 33.8 °F 62% 30.01 in 10.0 mi East 13.8 mph - N/A   Overcast
1:56 AM 46.9 °F - 35.1 °F 63% 30.01 in 10.0 mi East 13.8 mph 24.2 mph N/A   Overcast
2:56 AM 46.0 °F 38.0 °F 37.0 °F 71% 30.01 in 10.0 mi East 21.9 mph 26.5 mph N/A   Overcast
3:56 AM 46.0 °F 38.5 °F 35.1 °F 66% 29.99 in 10.0 mi East 19.6 mph 29.9 mph N/A   Overcast
4:56 AM 44.1 °F 35.9 °F 36.0 °F 73% 29.99 in 10.0 mi East 19.6 mph 27.6 mph 0.00 in   Overcast
5:56 AM 45.0 °F 36.4 °F 33.1 °F 63% 29.97 in 10.0 mi East 23.0 mph 31.1 mph N/A   Overcast
6:56 AM 44.1 °F 34.8 °F 32.0 °F 63% 29.96 in 10.0 mi East 25.3 mph 36.8 mph 0.00 in   Light Drizzle
7:56 AM 43.0 °F 33.3 °F 34.0 °F 71% 29.93 in 10.0 mi East 25.3 mph 36.8 mph 0.00 in   Overcast
8:56 AM 42.1 °F 32.3 °F 34.0 °F 73% 29.92 in 6.0 mi East 24.2 mph 34.5 mph 0.00 in Rain Light Rain
9:56 AM 41.0 °F 30.5 °F 36.0 °F 82% 29.87 in 2.0 mi East 26.5 mph 36.8 mph 0.03 in Rain Light Rain
10:36 AM 39.2 °F 28.7 °F 35.6 °F 87% 29.88 in 4.0 mi East 23.0 mph 33.4 mph 0.14 in Rain Light Rain
10:56 AM 39.9 °F 32.5 °F 36.0 °F 86% 29.90 in 2.0 mi East 12.7 mph 31.1 mph 0.16 in Rain Light Rain
11:56 AM 41.0 °F 33.1 °F 37.0 °F 86% 29.88 in 2.5 mi East 15.0 mph 26.5 mph 0.14 in Rain Light Rain
12:56 PM 42.1 °F 35.2 °F 37.9 °F 85% 29.85 in 5.0 mi ENE 12.7 mph 23.0 mph 0.04 in Rain Light Rain
1:56 PM 42.1 °F 34.9 °F 39.0 °F 89% 29.78 in 4.0 mi East 13.8 mph 28.8 mph 0.05 in Rain Light Rain
2:56 PM 43.0 °F 36.0 °F 39.0 °F 86% 29.76 in 4.0 mi ENE 13.8 mph 24.2 mph 0.03 in Rain Light Rain
3:08 PM 42.8 °F 37.5 °F 39.2 °F 87% 29.75 in 2.0 mi ENE 9.2 mph 21.9 mph 0.04 in Rain Rain
3:56 PM 43.0 °F 37.7 °F 39.9 °F 89% 29.73 in 2.0 mi ENE 9.2 mph - 0.23 in Rain Rain
4:35 PM 42.8 °F 36.2 °F 39.2 °F 87% 29.71 in 5.0 mi ENE 12.7 mph - 0.02 in Rain Light Rain
4:56 PM 43.0 °F 36.8 °F 39.9 °F 89% 29.71 in 5.0 mi ENE 11.5 mph 17.3 mph 0.02 in Rain Light Rain
5:56 PM 43.0 °F 36.4 °F 39.9 °F 89% 29.72 in 8.0 mi NE 12.7 mph 21.9 mph 0.01 in Rain Light Rain
6:56 PM 42.1 °F 34.2 °F 39.0 °F 89% 29.71 in 8.0 mi NNE 16.1 mph - 0.02 in Rain Light Rain
7:56 PM 42.1 °F 33.9 °F 39.0 °F 89% 29.70 in 10.0 mi NNE 17.3 mph 23.0 mph 0.01 in   Overcast
8:56 PM 41.0 °F 32.8 °F 39.0 °F 93% 29.70 in 10.0 mi NNE 16.1 mph - 0.00 in Rain Light Rain
9:56 PM 41.0 °F 32.8 °F 37.9 °F 89% 29.71 in 7.0 mi NNE 16.1 mph - 0.00 in   Light Drizzle
10:56 PM 39.9 °F 32.1 °F 37.9 °F 93% 29.72 in 10.0 mi NNE 13.8 mph 20.7 mph 0.00 in   Overcast
11:56 PM 39.9 °F 32.5 °F 37.0 °F 89% 29.73 in 10.0 mi NNE 12.7 mph - 0.00 in   Light Drizzle